This is the latest recevied weather packets stored in our database for station/object KE0WPC. If no packets are shown the sender has not sent any weather packets the latest 10 day(s).
| Time | Temp. | Humidity | Pressure | Rain* | Wind** | Luminosity | Snow |
|---|---|---|---|---|---|---|---|
| 1777741297 | 17.22° C | 39% | 1017.6 hPa | - | - | - | - |
| 1777740995 | 17.22° C | 39% | 1017.9 hPa | - | - | - | - |
| 1777740692 | 17.22° C | 41% | 1018.2 hPa | - | - | - | - |
| 1777740387 | 16.67° C | 41% | 1018.2 hPa | - | - | - | - |
| 1777740085 | 16.67° C | 41% | 1018.2 hPa | - | - | - | - |
| 1777739781 | 16.67° C | 42% | 1018.2 hPa | - | - | - | - |
| 1777739477 | 16.67° C | 42% | 1018.2 hPa | - | - | - | - |
| 1777739174 | 16.67° C | 44% | 1018.2 hPa | - | - | - | - |
| 1777738871 | 16.67° C | 43% | 1017.9 hPa | - | - | - | - |
| 1777738568 | 16.67° C | 44% | 1018.2 hPa | - | - | - | - |
| 1777738265 | 16.11° C | 45% | 1018.2 hPa | - | - | - | - |
| 1777737963 | 16.11° C | 45% | 1018.2 hPa | - | - | - | - |
| 1777737661 | 16.11° C | 46% | 1018.2 hPa | - | - | - | - |
| 1777737360 | 15.56° C | 46% | 1018.2 hPa | - | - | - | - |
| 1777737056 | 15.56° C | 46% | 1018.7 hPa | - | - | - | - |
| 1777736752 | 15° C | 48% | 1018.7 hPa | - | - | - | - |
| 1777736124 | 14.44° C | 49% | 1018.7 hPa | - | - | - | - |
| 1777735816 | 13.89° C | 50% | 1019 hPa | - | - | - | - |
| 1777735514 | 13.33° C | 50% | 1018.7 hPa | - | - | - | - |
| 1777735211 | 13.33° C | 50% | 1019 hPa | - | - | - | - |
| 1777734908 | 12.78° C | 52% | 1018.7 hPa | - | - | - | - |
| 1777734604 | 12.78° C | 53% | 1019 hPa | - | - | - | - |
| 1777734302 | 12.22° C | 53% | 1019 hPa | - | - | - | - |
| 1777733997 | 11.67° C | 53% | 1019 hPa | - | - | - | - |
| 1777733694 | 11.67° C | 53% | 1019.4 hPa | - | - | - | - |
* Rain since midnight (hover to see other rain measurements)
** Current wind speed in m/s (hover to see current wind gust speed)